DELTA 1 DEB, 21458

Orbit data source: Space-Track

DELTA 1 DEB, 21458 is space debris in SSO originally from a launch on Thu, 12 Jun 1975 UTC launched from the Air Force Western Test Range (AFWTR). Debris objects in space refer to the collection of defunct objects orbiting the Earth. Examples of debris include non-operational satellites, rocket bodies, and fragments generated from explosions, collisions, or faulty payload assembly.

Loading next visibility...
Identifier
21458, 1975-052ES
Orbit
SSO
Country
Flag of USUS
Related business
Manufacturer
Unknown
Mission
Spacecraft
Bus & Motor
Unknown
Mass
Unknown
Launch date (UTC)
1975-06-12 (51 years ago)
Launch vehicle
Unknown
Launch site
Air Force Western Test Range (AFWTR)
Object type
Payload
Rocket body
Debris
Shape & HBR
Unknown shape, 0.1 m
Radar Cross Section
Small (<0.1 m²)

Expand to show TLE details & history
Last TLE update: 14 hours ago

TLE from 14 hours ago
0 DELTA 1 DEB
1 21458U 75052ES  26124.56109785  .00000081  00000-0  44615-3 0  9997
2 21458  99.7767 333.5899 0563477  65.3711 352.0931 12.44543177588149
Epoch: 2026-05-04T13:27Z
TLE epoch observation values (Epoch: 2026-05-04T13:27:58.854Z)
Latitude
55.37093°
Longitude
-105.22539°
Altitude
1,057.89 km
Speed
7.53 km/s
True Right ascension
21h 16m 52s
True Declination
55° 12' 59"
Sunlit
Object was in daylight at epoch
Visualization orbit readout
Latitude
Unknown
Longitude
Unknown
Altitude
Unknown
Speed
Unknown
Apparent Right ascension
Unknown
Apparent Declination
Unknown
Sunlit
N/A
Visualization observer readout
Local Sidereal Time
11:20:14
Azimuth
Unknown
Elevation
Unknown
Doppler factor
Unknown
Orbital elements
Apogee altitude
1,927.899 km
Perigee altitude
1,041.778 km
Semi-major axis
7,862.975 km
Eccentricity
0.05635
Inclination
99.7767°
RAAN
333.5899°
Arg. of periapsis
65.3711°
True anomaly
351.1385°
Mean anomaly
352.0931°
Eccentric anomaly
351.62274°
Mean motion
3.11288 °/min
Orbital period
115.65 mins
BSTAR
0.00044615
Loading maneuver chart data...
Computing Atmospheric mass density...
Loading historical data...
Loading historical data...
Loading historical data...
Loading historical data...
Loading historical data...
Loading historical data...
Loading historical data...

Documentation

Showing up to 5 results
|